Biloxi, MS

5:17 PM CDT on August 24, 2016 (GMT -0500)
Keesler Air Force Base

Weather History for KBIX - December, 2013

Change the Weather History Date:

Friday, December 27, 2013

  Actual Average Record
Temperature  
Mean Temperature 52 °F -  
Max Temperature 61 °F 61 °F 78 °F (2015)
Min Temperature 42 °F 43 °F 26 °F (1983)
Degree Days  
Heating Degree Days 14    
Growing Degree Days 2 (Base 50)    
Moisture  
Dew Point 35 °F    
Average Humidity 54    
Maximum Humidity 74    
Minimum Humidity 34    
Precipitation  
Precipitation 0.00 in - - ()
Sea Level Pressure  
Sea Level Pressure 30.32 in    
Wind  
Wind Speed 8 mph (NE)    
Max Wind Speed 14 mph    
Max Gust Speed -    
Visibility 10 miles    
Events Rain    
Averages and records for this station are not official NWS values.
T = Trace of Precipitation, MM = Missing Value Source: NWS Daily Summary

Daily Weather History Graph

Daily Weather History Graph

Search for Another Location

Airport or City:

Trip Planner

Search our weather history database for the weather conditions in past years. The results will help you decide how hot, cold, wet, or windy it might be!

Date:

Astronomy

Dec. 27, 2013 Rise Set
Actual Time 6:51 AM CST 5:02 PM CST
Civil Twilight 6:24 AM CST 5:29 PM CST
Nautical Twilight 5:54 AM CST 5:59 PM CST
Astronomical Twilight 5:25 AM CST 6:28 PM CST
Moon 1:36 AM CST (12/27) 1:01 PM CST (12/27)
Length of Visible Light 11h 04m
Length of Day
10h 11m
Waning Crescent, 28% of the Moon is Illuminated
Dec 27
Waning Crescent
Jan 1
New
Jan 7
First Quarter
Jan 15
Full
Jan 23
Last Quarter

Hourly Weather History & Observations

Time (CST) Temp. Windchill Dew Point Humidity Pressure Visibility Wind Dir Wind Speed Gust Speed Precip Events Conditions
12:58 AM 43.9 °F 41.3 °F 34.2 °F 69% 30.33 in 10.0 mi North 4.6 mph - N/A   Clear
1:58 AM 42.6 °F 39.9 °F 34.9 °F 74% 30.33 in 10.0 mi NNE 4.6 mph - N/A   Clear
2:58 AM 44.6 °F 40.2 °F 34.0 °F 66% 30.34 in 10.0 mi NNE 8.1 mph - N/A   Clear
3:58 AM 44.4 °F 40.0 °F 34.2 °F 67% 30.35 in 10.0 mi NNE 8.1 mph - N/A   Clear
4:58 AM 44.4 °F 39.0 °F 33.8 °F 66% 30.34 in 10.0 mi NNE 10.4 mph - N/A   Mostly Cloudy
5:58 AM 44.4 °F 39.5 °F 33.8 °F 66% 30.35 in 10.0 mi NNE 9.2 mph - N/A   Overcast
6:58 AM 44.4 °F 40.0 °F 33.6 °F 66% 30.37 in 10.0 mi NE 8.1 mph - N/A   Overcast
7:58 AM 45.3 °F 41.6 °F 33.8 °F 64% 30.39 in 10.0 mi NE 6.9 mph - N/A   Partly Cloudy
8:58 AM 47.8 °F - 34.2 °F 59% 30.39 in 10.0 mi NNE 10.4 mph - N/A   Partly Cloudy
9:58 AM 53.2 °F - 34.7 °F 49% 30.40 in 10.0 mi NE 11.5 mph - N/A   Scattered Clouds
10:58 AM 55.2 °F - 34.7 °F 46% 30.38 in 10.0 mi NNE 8.1 mph - N/A   Clear
11:58 AM 57.0 °F - 33.4 °F 41% 30.37 in 10.0 mi NNE 9.2 mph - N/A   Overcast
12:58 PM 61.3 °F - 32.9 °F 34% 30.33 in 10.0 mi NE 13.8 mph - N/A   Mostly Cloudy
1:58 PM 61.7 °F - 33.8 °F 35% 30.28 in 10.0 mi NE 9.2 mph - N/A   Clear
2:58 PM 60.8 °F - 32.7 °F 35% 30.29 in 10.0 mi NE 10.4 mph - N/A   Mostly Cloudy
3:58 PM 58.5 °F - 33.6 °F 39% 30.29 in 10.0 mi NNE 10.4 mph - N/A   Overcast
4:58 PM 56.3 °F - 36.9 °F 48% 30.31 in 10.0 mi NNE 5.8 mph - N/A   Overcast
5:58 PM 55.0 °F - 36.7 °F 50% 30.32 in 10.0 mi NNE 8.1 mph - N/A   Overcast
6:58 PM 54.9 °F - 34.9 °F 47% 30.33 in 10.0 mi NNE 8.1 mph - N/A   Scattered Clouds
7:58 PM 54.0 °F - 35.4 °F 50% 30.32 in 10.0 mi NE 9.2 mph - N/A   Overcast
8:58 PM 53.4 °F - 34.9 °F 49% 30.31 in 10.0 mi NNE 9.2 mph - N/A   Overcast
9:58 PM 53.1 °F - 35.1 °F 50% 30.30 in 10.0 mi NE 10.4 mph - N/A   Overcast
9:59 PM 53.6 °F - 35.6 °F 51% 30.29 in 9.0 mi NE 10.4 mph - N/A Rain Light Rain
10:08 PM 51.8 °F - 35.6 °F 54% 30.29 in 8.0 mi NE 10.4 mph - N/A   Overcast
10:13 PM 51.8 °F - 35.6 °F 54% 30.29 in 10.0 mi NE 10.4 mph - N/A   Overcast
10:58 PM 52.0 °F - 36.5 °F 56% 30.29 in 10.0 mi NNE 8.1 mph - 0.00 in   Overcast
11:30 PM 51.8 °F - 37.4 °F 58% 30.28 in 10.0 mi NNE 8.1 mph - N/A Rain Light Rain
11:40 PM 50.0 °F - 39.2 °F 66% 30.27 in 10.0 mi NE 8.1 mph - N/A   Overcast
11:58 PM 50.5 °F - 38.7 °F 64% 30.27 in 10.0 mi NNE 8.1 mph - 0.00 in   Overcast